FW8871 Weather Reports


Display with metric or nautical units.
time (UTC)temp
F
wind
direction
speed
MPH
gust
MPH
rain 1hr
in
rain 24hr
in
rain mn
in
humidity
%
barometer
mb
20260507010054 47 0 0.0 3.0 0.00 0.15 0.15 77 1019.9
20260507005548 47 0 0.0 4.0 0.00 0.15 0.15 76 1019.8
20260507005048 47 0 0.0 4.0 0.00 0.15 0.15 75 1019.8
20260507004552 47 0 0.0 0.0 0.00 0.15 0.15 75 1019.8
20260507004048 48 0 0.0 0.0 0.00 0.15 0.15 75 1019.7
20260507003548 47 0 0.0 0.0 0.00 0.15 0.15 75 1019.7
20260507003055 47 0 0.0 0.0 0.00 0.15 0.15 74 1019.8
20260507002548 47 0 0.0 0.0 0.00 0.15 0.15 74 1019.8
20260507002050 47 0 0.0 0.0 0.00 0.15 0.15 74 1019.8
20260507001551 47 0 0.0 2.0 0.00 0.15 0.15 74 1019.7
20260507001046 47 0 0.0 3.0 0.00 0.15 0.15 73 1019.8
20260507000552 48 0 1.0 3.0 0.00 0.15 0.15 74 1019.9
20260507000051 48 0 0.0 2.0 0.00 0.15 0.15 74 1019.8
20260506235547 48 0 0.0 2.0 0.00 0.15 0.15 74 1019.6
20260506235050 48 122 1.0 2.0 0.00 0.15 0.15 75 1019.6
20260506234554 48 0 0.0 1.0 0.00 0.15 0.15 75 1019.5
20260506234047 48 0 0.0 1.0 0.00 0.15 0.15 75 1019.6
20260506233547 48 0 0.0 4.0 0.00 0.15 0.15 75 1019.6
20260506233108 48 0 0.0 4.0 0.00 0.15 0.15 74 1019.7
20260506232549 48 0 0.0 1.0 0.00 0.15 0.15 74 1019.7
20260506232047 48 0 0.0 2.0 0.00 0.15 0.15 74 1019.6
20260506231550 48 0 0.0 2.0 0.00 0.15 0.15 75 1019.4
20260506231046 48 0 0.0 1.0 0.00 0.15 0.15 76 1019.3
20260506230547 48 312 0.0 2.0 0.00 0.15 0.15 75 1019.3
20260506230053 48 0 0.0 7.0 0.00 0.15 0.15 76 1019.5
20260506225547 48 312 2.0 7.0 0.00 0.15 0.15 76 1019.7
20260506225046 48 6 2.0 3.0 0.00 0.15 0.15 75 1019.5
20260506224550 48 0 0.0 3.0 0.00 0.15 0.15 78 1019.4
20260506224052 48 4 0.0 3.0 0.00 0.15 0.15 78 1019.4
20260506223552 47 0 0.0 4.0 0.00 0.15 0.15 80 1019.3
20260506223050 47 83 2.0 4.0 0.00 0.15 0.15 80 1019.2
20260506222549 47 89 1.0 4.0 0.00 0.15 0.15 81 1019.3
20260506222049 47 88 2.0 4.0 0.00 0.15 0.15 81 1019.4
20260506221553 47 82 0.0 4.0 0.00 0.15 0.15 81 1019.4
20260506221048 47 60 0.0 4.0 0.00 0.15 0.15 81 1019.5
20260506220547 46 0 2.0 4.0 0.00 0.15 0.15 81 1019.5
20260506220052 46 0 1.0 4.0 0.00 0.15 0.15 81 1019.5
20260506215549 46 0 1.0 4.0 0.00 0.15 0.15 82 1019.5
20260506215047 46 70 1.0 4.0 0.00 0.15 0.15 82 1019.6
20260506214554 46 34 2.0 6.0 0.00 0.15 0.15 81 1019.5
20260506214047 46 105 2.0 7.0 0.00 0.15 0.15 81 1019.6
20260506213546 46 85 3.0 8.0 0.00 0.15 0.15 81 1019.5
20260506213111 46 84 6.0 8.0 0.00 0.15 0.15 81 1019.5
20260506212549 46 91 2.0 9.0 0.00 0.15 0.15 82 1019.5
20260506212049 47 66 4.0 9.0 0.00 0.15 0.15 80 1019.5
20260506211554 47 91 3.0 6.0 0.00 0.15 0.15 81 1019.6
20260506211050 47 91 0.0 2.0 0.00 0.15 0.15 82 1019.7
20260506210547 47 0 1.0 5.0 0.00 0.15 0.15 82 1019.6
20260506210054 47 0 0.0 6.0 0.00 0.15 0.15 82 1019.8
20260506205548 46 113 2.0 6.0 0.00 0.15 0.15 82 1020.0
20260506205047 47 20 1.0 6.0 0.00 0.15 0.15 82 1020.0
20260506204559 47 0 1.0 7.0 0.00 0.15 0.15 84 1020.0
20260506204046 47 72 3.0 7.0 0.00 0.15 0.15 84 1020.0
20260506203550 47 59 3.0 6.0 0.00 0.15 0.15 85 1020.0
20260506203053 47 97 2.0 6.0 0.00 0.15 0.15 87 1020.0
20260506202549 47 94 0.0 6.0 0.00 0.15 0.15 88 1020.0
20260506202047 46 103 0.0 7.0 0.00 0.15 0.15 88 1020.1
20260506201553 46 62 1.0 9.0 0.00 0.15 0.15 89 1020.2
20260506201046 46 78 5.0 9.0 0.00 0.15 0.15 89 1020.2
20260506200546 45 68 3.0 8.0 0.00 0.15 0.15 91 1020.2
20260506200053 45 76 3.0 7.0 0.00 0.15 0.15 92 1020.3
20260506195549 45 100 3.0 9.0 0.01 0.15 0.15 92 1020.2
20260506195049 45 73 2.0 9.0 0.01 0.15 0.15 93 1020.2
20260506194628 44 115 5.0 10.0 0.01 0.15 0.15 93 1020.2
20260506194054 44 82 4.0 10.0 0.01 0.15 0.15 93 1020.2
20260506193549 44 69 1.0 7.0 0.01 0.15 0.15 93 1020.2
20260506193102 44 77 3.0 8.0 0.01 0.15 0.15 93 1020.3
20260506192547 43 46 4.0 8.0 0.01 0.15 0.15 93 1020.2
20260506192051 43 70 4.0 8.0 0.01 0.15 0.15 93 1020.2
20260506191551 43 103 4.0 7.0 0.01 0.15 0.15 93 1020.2
20260506191046 43 127 2.0 7.0 0.01 0.15 0.15 93 1020.2
20260506190547 43 73 2.0 7.0 0.01 0.15 0.15 93 1020.3
20260506190052 43 77 3.0 7.0 0.01 0.15 0.15 93 1020.3
20260506185546 43 63 2.0 7.0 0.00 0.14 0.14 93 1020.4
20260506185046 43 75 1.0 6.0 0.00 0.14 0.14 93 1020.5
20260506184550 43 92 2.0 6.0 0.00 0.14 0.14 93 1020.6
20260506184047 43 70 1.0 6.0 0.00 0.14 0.14 93 1020.6
20260506183549 42 0 0.0 6.0 0.01 0.14 0.14 93 1020.7
20260506183057 42 58 3.0 6.0 0.01 0.14 0.14 93 1020.7
20260506182548 42 56 2.0 6.0 0.01 0.14 0.14 93 1020.7
20260506182048 42 0 3.0 9.0 0.01 0.14 0.14 93 1020.8
20260506181556 42 67 2.0 9.0 0.01 0.14 0.14 93 1020.9
20260506181049 42 80 3.0 8.0 0.01 0.14 0.14 93 1020.9
20260506180550 42 72 2.0 8.0 0.01 0.14 0.14 93 1021.0
20260506175550 41 88 1.0 7.0 0.02 0.14 0.14 93 1021.0
20260506175046 41 0 3.0 7.0 0.02 0.14 0.14 93 1021.0
20260506174555 41 83 1.0 7.0 0.02 0.14 0.14 93 1021.0
20260506174048 41 50 3.0 10.0 0.02 0.14 0.14 93 1021.0
20260506173547 41 84 3.0 10.0 0.02 0.13 0.13 93 1021.0
20260506173057 41 72 2.0 5.0 0.02 0.13 0.13 93 1021.0
20260506172546 41 77 0.0 7.0 0.02 0.13 0.13 93 1020.9
20260506172046 41 0 1.0 7.0 0.02 0.13 0.13 93 1020.9
20260506171557 41 88 2.0 7.0 0.02 0.13 0.13 93 1020.9
20260506171054 41 58 1.0 7.0 0.02 0.13 0.13 93 1020.9
20260506170549 41 0 3.0 8.0 0.02 0.13 0.13 93 1020.9
20260506170103 41 0 1.0 8.0 0.03 0.13 0.13 93 1020.8
20260506165547 41 41 2.0 8.0 0.02 0.12 0.12 93 1020.9
20260506165047 41 55 3.0 7.0 0.02 0.12 0.12 93 1020.8
20260506164551 41 57 2.0 7.0 0.02 0.12 0.12 93 1020.8
20260506164051 41 77 2.0 7.0 0.02 0.12 0.12 93 1020.8
20260506163547 41 28 2.0 7.0 0.01 0.11 0.11 93 1020.8
20260506163111 41 8 2.0 10.0 0.02 0.11 0.11 93 1020.6
20260506162548 41 49 4.0 10.0 0.02 0.11 0.11 93 1020.5
20260506162051 41 38 3.0 7.0 0.02 0.11 0.11 93 1020.5
20260506161551 41 0 2.0 6.0 0.02 0.11 0.11 93 1020.5
20260506161048 41 15 0.0 2.0 0.02 0.11 0.11 93 1020.4
20260506160548 41 0 0.0 5.0 0.02 0.11 0.11 93 1020.3
20260506160056 41 0 0.0 9.0 0.01 0.10 0.10 93 1020.1
20260506155552 41 25 1.0 9.0 0.02 0.10 0.10 93 1020.0
20260506155049 41 62 0.0 5.0 0.02 0.10 0.10 93 1020.1
20260506154615 41 44 2.0 5.0 0.02 0.10 0.10 93 1020.2
20260506154049 41 0 1.0 4.0 0.02 0.10 0.10 93 1020.1
20260506153547 41 0 1.0 5.0 0.02 0.10 0.10 93 1020.1
20260506153058 41 88 0.0 6.0 0.01 0.09 0.09 93 1020.0
20260506152548 40 0 2.0 7.0 0.01 0.09 0.09 93 1020.0
20260506152049 41 75 3.0 7.0 0.01 0.09 0.09 93 1020.0
20260506151558 41 14 2.0 6.0 0.01 0.09 0.09 93 1020.0
20260506151047 41 94 1.0 5.0 0.01 0.09 0.09 93 1020.0
20260506150549 41 0 2.0 6.0 0.01 0.09 0.09 93 1019.8
20260506150051 40 82 3.0 8.0 0.01 0.09 0.09 93 1019.8
20260506145549 40 64 2.0 8.0 0.00 0.08 0.08 93 1019.8
20260506145049 40 56 2.0 8.0 0.00 0.08 0.08 93 1019.8
20260506144555 40 57 2.0 8.0 0.00 0.08 0.08 93 1019.8
20260506144049 40 72 2.0 6.0 0.00 0.08 0.08 93 1019.7
20260506143549 40 323 2.0 7.0 0.01 0.08 0.08 93 1019.7
20260506143104 40 72 2.0 7.0 0.01 0.08 0.08 93 1019.8
20260506142547 40 91 1.0 7.0 0.01 0.08 0.08 93 1019.8
20260506142048 40 80 1.0 4.0 0.01 0.08 0.08 93 1019.8
20260506141556 40 49 1.0 4.0 0.01 0.08 0.08 93 1019.8
20260506141053 40 0 0.0 0.0 0.01 0.08 0.08 93 1019.7
20260506140549 40 0 0.0 0.0 0.01 0.08 0.08 93 1019.8
20260506140057 40 0 0.0 0.0 0.01 0.08 0.08 93 1019.9
20260506135548 40 0 0.0 0.0 0.01 0.08 0.08 93 1019.8
20260506135049 40 0 0.0 0.0 0.01 0.08 0.08 93 1019.8
20260506134550 40 0 0.0 0.0 0.01 0.08 0.08 93 1019.8
20260506134048 40 0 0.0 0.0 0.01 0.08 0.08 93 1019.8
20260506133547 40 0 0.0 0.0 0.00 0.07 0.07 93 1019.9
20260506133057 40 0 0.0 0.0 0.00 0.07 0.07 93 1019.8
20260506132548 40 0 0.0 0.0 0.00 0.07 0.07 93 1019.7
20260506132048 40 0 0.0 0.0 0.00 0.07 0.07 93 1019.8
20260506131553 39 0 0.0 0.0 0.00 0.07 0.07 93 1019.8
20260506131048 39 0 0.0 0.0 0.00 0.07 0.07 93 1019.6
20260506130549 39 0 0.0 0.0 0.00 0.07 0.07 93 1019.3
20260506130052 39 0 0.0 0.0 0.00 0.07 0.07 93 1019.4
20260506125551 39 0 0.0 0.0 0.00 0.07 0.07 93 1019.6
20260506125052 39 0 0.0 0.0 0.00 0.07 0.07 93 1019.5
20260506124552 39 0 0.0 0.0 0.00 0.07 0.07 92 1019.3
20260506124048 39 0 0.0 0.0 0.00 0.07 0.07 92 1018.6
20260506123550 39 0 0.0 0.0 0.00 0.07 0.07 92 1018.7
20260506123057 39 0 0.0 0.0 0.00 0.07 0.07 92 1018.4
20260506122549 39 0 0.0 0.0 0.01 0.07 0.07 92 1018.3
20260506122048 39 0 0.0 0.0 0.01 0.07 0.07 92 1018.2
20260506121553 39 0 0.0 0.0 0.01 0.07 0.07 92 1018.1
20260506121048 39 0 0.0 0.0 0.01 0.07 0.07 92 1018.1
20260506120548 39 0 0.0 0.0 0.01 0.07 0.07 92 1018.2
20260506120058 39 0 0.0 0.0 0.01 0.07 0.07 92 1017.9
20260506115548 39 0 0.0 1.0 0.01 0.07 0.07 92 1017.9
20260506115047 39 0 0.0 3.0 0.01 0.07 0.07 92 1017.9
20260506114559 39 0 0.0 3.0 0.01 0.07 0.07 92 1017.9
20260506114051 39 28 0.0 3.0 0.01 0.07 0.07 92 1017.9
20260506113549 39 0 0.0 2.0 0.01 0.07 0.07 92 1017.5
20260506113057 39 23 0.0 2.0 0.01 0.07 0.07 92 1017.5
20260506112548 39 0 0.0 2.0 0.00 0.06 0.06 92 1017.3
20260506112050 39 0 0.0 2.0 0.00 0.06 0.06 92 1017.5
20260506111557 40 0 0.0 2.0 0.00 0.06 0.06 92 1017.6
20260506111047 40 31 0.0 2.0 0.00 0.06 0.06 92 1017.7
20260506110548 40 0 0.0 1.0 0.00 0.06 0.06 92 1017.6
20260506105549 40 0 0.0 3.0 0.00 0.06 0.06 92 1017.6
20260506105048 40 0 1.0 3.0 0.00 0.06 0.06 92 1017.6
20260506104556 40 8 0.0 3.0 0.00 0.06 0.06 92 1017.5
20260506104048 40 0 0.0 3.0 0.00 0.06 0.06 92 1017.6
20260506103552 40 0 0.0 0.0 0.00 0.06 0.06 92 1017.4
20260506103053 40 0 0.0 0.0 0.01 0.06 0.06 92 1017.4
20260506102548 39 0 0.0 0.0 0.01 0.06 0.06 92 1017.3
20260506102047 39 0 0.0 0.0 0.02 0.06 0.06 92 1017.3
20260506101606 39 0 0.0 2.0 0.02 0.06 0.06 92 1017.2
20260506101047 39 0 0.0 3.0 0.02 0.06 0.06 92 1016.8
20260506100547 39 0 0.0 3.0 0.02 0.06 0.06 92 1016.6
20260506100056 39 0 0.0 4.0 0.02 0.06 0.06 92 1016.5
20260506095549 39 109 0.0 4.0 0.02 0.06 0.06 92 1016.3
20260506095048 39 86 2.0 4.0 0.02 0.06 0.06 92 1016.6
20260506094622 39 0 1.0 4.0 0.02 0.06 0.06 92 1017.0
20260506094047 40 0 1.0 4.0 0.02 0.06 0.06 92 1017.2
20260506093548 40 88 1.0 4.0 0.02 0.06 0.06 92 1017.0
20260506093057 40 94 1.0 4.0 0.01 0.05 0.05 92 1016.9
20260506092549 40 49 1.0 6.0 0.01 0.05 0.05 92 1017.0
20260506092048 40 76 2.0 6.0 0.00 0.04 0.04 92 1017.1
20260506091600 40 74 1.0 4.0 0.00 0.04 0.04 92 1016.9
20260506091048 40 92 1.0 6.0 0.00 0.04 0.04 92 1017.1
20260506090547 40 53 1.0 6.0 0.00 0.04 0.04 92 1017.0
20260506090052 40 94 3.0 7.0 0.00 0.04 0.04 92 1016.7
20260506085548 40 93 2.0 7.0 0.00 0.04 0.04 92 1017.0
20260506085049 40 84 2.0 7.0 0.00 0.04 0.04 92 1017.0
20260506084552 40 79 3.0 8.0 0.00 0.04 0.04 92 1017.0
20260506084053 40 50 2.0 9.0 0.00 0.04 0.04 92 1016.9
20260506083550 40 89 3.0 9.0 0.00 0.04 0.04 92 1017.0
20260506083052 40 67 3.0 7.0 0.00 0.04 0.04 92 1017.1
20260506082553 40 61 3.0 7.0 0.00 0.04 0.04 92 1017.0
20260506082047 40 96 0.0 9.0 0.00 0.04 0.04 92 1017.1
20260506081552 40 91 3.0 9.0 0.01 0.04 0.04 91 1017.3
20260506081047 40 103 5.0 9.0 0.01 0.04 0.04 91 1017.1
20260506080548 40 72 5.0 10.0 0.01 0.04 0.04 91 1017.3
20260506073050 40 77 5.0 9.0 0.02 0.04 0.04 91 1017.0
20260506072550 40 101 3.0 7.0 0.02 0.04 0.04 91 1017.2
20260506072046 40 90 2.0 7.0 0.02 0.04 0.04 90 1017.4
20260506071553 40 98 2.0 9.0 0.01 0.03 0.03 90 1017.5
20260506071048 40 45 3.0 9.0 0.02 0.03 0.03 90 1017.5
20260506070546 40 45 4.0 9.0 0.02 0.03 0.03 90 1017.2
20260506062047 40 25 2.0 7.0 0.02 0.02 0.02 87 1017.6
20260506061553 40 63 2.0 6.0 0.02 0.02 0.02 87 1017.6
20260506061048 40 63 1.0 8.0 0.01 0.01 0.01 86 1017.5
20260506060548 40 0 1.0 8.0 0.01 0.01 0.01 86 1017.4
20260506051050 41 23 1.0 8.0 0.00 0.00 0.00 81 1015.9
20260506050548 41 64 2.0 8.0 0.00 0.00 0.00 81 1016.0
20260506045048 41 41 2.0 6.0 0.00 0.00 0.00 80 1015.6
20260506044553 41 62 3.0 8.0 0.00 0.00 0.00 80 1015.8
20260506044047 41 77 1.0 10.0 0.00 0.00 0.00 80 1015.6
20260506043547 41 93 1.0 11.0 0.00 0.00 0.00 80 1015.6
20260506043050 41 142 3.0 11.0 0.00 0.00 0.00 80 1015.6
20260506042548 41 14 3.0 11.0 0.00 0.00 0.00 79 1015.4
20260506042047 42 74 2.0 11.0 0.00 0.00 0.00 79 1015.5
20260506041551 42 1 4.0 10.0 0.00 0.00 0.00 79 1015.7
20260506041044 42 45 4.0 9.0 0.00 0.00 0.00 79 1015.7
20260506040549 42 140 2.0 8.0 0.00 0.00 0.00 79 1015.6
20260506035548 42 85 2.0 8.0 0.00 0.00 0.00 78 1015.8
20260506035048 42 124 2.0 8.0 0.00 0.00 0.00 78 1015.6
20260506034605 42 105 3.0 8.0 0.00 0.00 0.00 78 1015.4
20260506034047 42 31 3.0 9.0 0.00 0.00 0.00 77 1015.6
20260506033547 42 87 2.0 9.0 0.00 0.00 0.00 77 1015.5
20260506033053 42 50 3.0 14.0 0.00 0.00 0.00 76 1015.3
20260506032548 42 66 5.0 17.0 0.00 0.00 0.00 76 1014.9
20260506032048 42 71 7.0 17.0 0.00 0.00 0.00 75 1014.5
20260506031601 42 87 7.0 14.0 0.00 0.00 0.00 75 1014.3
20260506031050 42 87 6.0 14.0 0.00 0.00 0.00 74 1014.3
20260506030544 42 328 6.0 14.0 0.00 0.00 0.00 74 1014.3
20260506030054 42 90 3.0 10.0 0.00 0.00 0.00 74 1014.4
20260506025547 42 99 4.0 10.0 0.00 0.00 0.00 74 1014.4
20260506025047 42 67 3.0 10.0 0.00 0.00 0.00 74 1014.5
20260506024624 42 122 2.0 11.0 0.00 0.00 0.00 74 1014.4
20260506024047 42 98 4.0 12.0 0.00 0.00 0.00 74 1014.4
20260506023549 43 26 4.0 12.0 0.00 0.00 0.00 74 1014.3
20260506023054 43 30 3.0 11.0 0.00 0.00 0.00 74 1014.2
20260506022548 43 88 3.0 11.0 0.00 0.00 0.00 74 1014.2
20260506022048 43 140 3.0 11.0 0.00 0.00 0.00 75 1014.3
20260506021600 43 56 3.0 10.0 0.00 0.00 0.00 75 1014.3
20260506021047 43 88 4.0 12.0 0.00 0.00 0.00 75 1014.1
20260506020548 43 49 4.0 12.0 0.00 0.00 0.00 75 1014.0
20260506020055 43 6 4.0 11.0 0.00 0.00 0.00 74 1014.0
20260506015548 43 70 3.0 10.0 0.00 0.00 0.00 74 1014.0
20260506015047 44 61 6.0 16.0 0.00 0.00 0.00 73 1014.1
20260506014553 44 38 6.0 16.0 0.00 0.00 0.00 73 1014.1
20260506014050 44 36 6.0 13.0 0.00 0.00 0.00 72 1014.1
20260506013548 45 35 5.0 11.0 0.00 0.00 0.00 71 1013.9
20260506013055 45 32 3.0 10.0 0.00 0.00 0.00 70 1013.9
20260506012547 45 23 4.0 10.0 0.00 0.00 0.00 69 1013.9
20260506012048 45 49 2.0 10.0 0.00 0.00 0.00 68 1013.9
20260506011558 45 63 2.0 10.0 0.00 0.00 0.00 68 1013.8
20260506011048 45 108 5.0 11.0 0.00 0.00 0.00 68 1013.9
20260506010548 45 20 4.0 13.0 0.00 0.00 0.00 68 1013.9